Date String (YYYY-MM-DD hh:mm:ss) UTC,Instrument flags,absolute air pressure of the measurement (hPa),sample flow rate (lpm),inlet stack bypass flow (lpm),air temperature of the measurement (°C),ambient temperature measured by the external sensor (°C),aerosol sample conditioner tube jacket temperature (°C),OPC LED temperature (°C),internal box temperature (°C),relative humidity of the measurement (%),span deviation,mass concentration of particles derived from Lorenz-Mie calculation of OPC scattering (μg/m³),mass concentration of particles derived from Lorenz-Mie calculation of OPC scattering (μg/m³),mass concentration of particles derived from Lorenz-Mie calculation of OPC scattering (μg/m³)
DateTimeUTC,F1_M11,P_M11,Q1_M11,Q2_M11,T1_M11,T2_M11,T3_M11,T4_M11,T5_M11,U1_M11,ZSPAN_M11,X0_M11,X2_M11,X1_M11
2023-06-13 22:00:00,SystemResetWarning,0828.5,4.99,000.00,029.9,028.5,000.0,038.3,031.4,26.3,0000.0,0003.15,0001.82,0001.48
2023-06-13 22:01:00,SystemResetWarning,0828.5,4.99,000.00,029.9,028.5,000.0,038.3,031.4,25.9,0000.0,0003.13,0001.79,0001.46
2023-06-13 22:02:00,SystemResetWarning,0828.5,5.00,000.00,029.9,028.6,000.0,038.3,031.5,26.8,0000.0,0002.92,0001.75,0001.44
2023-06-13 22:03:00,SystemResetWarning,0828.5,5.00,000.00,029.9,028.6,000.0,038.3,031.5,26.6,0000.0,0002.51,0001.70,0001.42
2023-06-13 22:04:00,SystemResetWarning,0828.5,5.00,000.00,030.0,028.6,000.0,038.4,031.5,25.9,0000.0,0002.47,0001.68,0001.42
2023-06-13 22:05:00,SystemResetWarning,0828.5,5.00,000.00,030.0,028.7,000.0,038.4,031.5,26.3,0000.0,0003.55,0001.69,0001.41
2023-06-13 22:06:00,SystemResetWarning,0828.5,5.00,000.00,030.0,028.7,000.0,038.4,031.5,27.1,0000.0,0003.76,0001.68,0001.41
2023-06-13 22:07:00,SystemResetWarning,0828.5,5.00,000.00,030.0,028.7,000.0,038.4,031.6,26.1,0000.0,0004.05,0001.71,0001.45
2023-06-13 22:08:00,SystemResetWarning,0828.5,5.00,000.00,030.0,028.7,000.0,038.4,031.6,26.1,0000.0,0004.63,0001.73,0001.48
2023-06-13 22:09:00,SystemResetWarning,0828.5,4.99,000.00,030.0,028.7,000.0,038.5,031.6,26.6,0000.0,0004.63,0001.75,0001.50
2023-06-13 22:10:00,SystemResetWarning,0828.5,4.99,000.00,030.1,028.8,000.0,038.5,031.6,26.2,0000.0,0004.60,0001.76,0001.53
2023-06-13 22:11:00,SystemResetWarning,0828.5,5.00,000.00,030.1,028.8,000.0,038.5,031.6,25.7,0000.0,0004.48,0001.76,0001.53
2023-06-13 22:12:00,SystemResetWarning,0828.4,5.01,000.00,030.1,028.8,000.0,038.5,031.7,26.0,0000.0,0004.44,0001.75,0001.54
2023-06-13 22:13:00,SystemResetWarning,0828.5,5.01,000.00,030.1,028.8,000.0,038.5,031.7,27.0,0000.0,0005.03,0001.76,0001.54
2023-06-13 22:14:00,SystemResetWarning,0828.4,4.99,000.00,030.1,028.8,000.0,038.6,031.7,25.7,0000.0,0005.41,0001.76,0001.53
2023-06-13 22:15:00,SystemResetWarning,0828.4,5.00,000.00,030.1,028.8,000.0,038.6,031.7,25.6,0000.0,0005.47,0001.75,0001.51
2023-06-13 22:16:00,SystemResetWarning,0828.4,5.00,000.00,030.2,028.9,000.0,038.6,031.7,25.0,0000.0,0004.63,0001.73,0001.49
2023-06-13 22:17:00,SystemResetWarning,0828.4,5.00,000.00,030.2,028.9,000.0,038.6,031.7,25.2,0000.0,0004.14,0001.70,0001.48
2023-06-13 22:18:00,SystemResetWarning,0828.4,5.00,000.00,030.2,028.9,000.0,038.6,031.8,25.7,0000.0,0004.06,0001.66,0001.44
2023-06-13 22:19:00,SystemResetWarning,0828.4,5.01,000.00,030.2,028.9,000.0,038.7,031.8,25.3,0000.0,0003.30,0001.64,0001.42
2023-06-13 22:20:00,SystemResetWarning,0828.4,5.01,000.00,030.2,028.9,000.0,038.7,031.8,24.8,0000.0,0003.27,0001.61,0001.39
2023-06-13 22:21:00,SystemResetWarning,0828.4,5.00,000.00,030.3,028.9,000.0,038.7,031.9,24.9,0000.0,0003.26,0001.57,0001.35
2023-06-13 22:22:00,SystemResetWarning,0828.4,4.99,000.00,030.3,029.0,000.0,038.7,031.9,25.3,0000.0,0003.33,0001.56,0001.32
2023-06-13 22:23:00,SystemResetWarning,0828.4,5.00,000.00,030.3,029.0,000.0,038.7,031.9,26.0,0000.0,0003.35,0001.56,0001.30
2023-06-13 22:24:00,SystemResetWarning,0828.4,5.00,000.00,030.3,029.0,000.0,038.7,031.9,25.9,0000.0,0002.85,0001.54,0001.28
2023-06-13 22:25:00,SystemResetWarning,0828.4,5.00,000.00,030.3,029.0,000.0,038.8,031.9,25.5,0000.0,0002.41,0001.54,0001.27
2023-06-13 22:26:00,SystemResetWarning,0828.4,5.00,000.00,030.4,028.8,000.0,038.8,031.9,25.0,0000.0,0002.38,0001.54,0001.27
2023-06-13 22:27:00,SystemResetWarning,0828.4,4.98,000.00,030.4,026.8,000.0,038.7,031.9,24.9,0000.0,0002.55,0001.56,0001.26
2023-06-13 22:28:00,SystemResetWarning,0828.4,5.01,000.00,030.3,025.1,000.0,038.6,031.7,25.4,0000.0,0002.71,0001.59,0001.24
2023-06-13 22:29:00,SystemResetWarning,0828.3,5.01,000.00,030.2,024.8,000.0,038.6,031.5,25.3,0000.0,0002.71,0001.61,0001.23
2023-06-13 22:30:00,SystemResetWarning,0828.3,5.01,000.00,030.0,025.1,000.0,038.6,031.1,26.8,0000.0,0002.92,0001.62,0001.22
2023-06-13 22:31:00,SystemResetWarning,0828.3,5.00,000.00,029.9,025.6,000.0,038.6,031.1,26.0,0000.0,0003.01,0001.63,0001.22
2023-06-13 22:32:00,SystemResetWarning,0828.3,4.98,000.00,029.9,026.0,000.0,038.6,031.2,25.4,0000.0,0003.15,0001.63,0001.21
2023-06-13 22:33:00,SystemResetWarning,0828.4,4.99,000.00,029.9,026.4,000.0,038.5,031.2,25.5,0000.0,0003.19,0001.61,0001.20
2023-06-13 22:34:00,SystemResetWarning,0828.3,5.00,000.00,029.8,026.8,000.0,038.5,031.2,26.7,0000.0,0003.16,0001.59,0001.19
2023-06-13 22:35:00,SystemResetWarning,0828.3,5.01,000.00,029.8,027.1,000.0,038.5,031.3,26.0,0000.0,0003.76,0001.55,0001.15
2023-06-13 22:36:00,SystemResetWarning,0828.3,5.00,000.00,029.8,027.4,000.0,038.5,031.3,27.1,0000.0,0004.45,0001.53,0001.13
2023-06-13 22:37:00,SystemResetWarning,0828.4,5.00,000.00,029.8,027.6,000.0,038.5,031.3,25.9,0000.0,0005.28,0001.50,0001.10
2023-06-13 22:38:00,SystemResetWarning,0828.4,5.00,000.00,029.8,027.8,000.0,038.5,031.3,25.9,0000.0,0005.10,0001.44,0001.07
2023-06-13 22:39:00,SystemResetWarning,0828.3,5.00,000.00,029.8,028.0,000.0,038.4,031.4,26.6,0000.0,0004.83,0001.39,0001.05
2023-06-13 22:40:00,SystemResetWarning,0828.4,5.00,000.00,029.9,028.1,000.0,038.4,031.4,26.2,0000.0,0004.78,0001.34,0001.03
2023-06-13 22:41:00,SystemResetWarning,0828.3,5.00,000.00,029.9,028.2,000.0,038.4,031.4,26.0,0000.0,0004.67,0001.31,0001.00
2023-06-13 22:42:00,SystemResetWarning,0828.3,5.00,000.00,029.9,028.3,000.0,038.4,031.5,25.6,0000.0,0004.46,0001.27,0000.98
2023-06-13 22:43:00,SystemResetWarning,0828.3,5.00,000.00,029.9,028.3,000.0,038.4,031.5,25.0,0000.0,0004.28,0001.23,0000.95
2023-06-13 22:44:00,SystemResetWarning,0828.3,5.00,000.00,029.9,028.4,000.0,038.4,031.5,24.9,0000.0,0004.01,0001.19,0000.93
2023-06-13 22:45:00,SystemResetWarning,0828.3,5.00,000.00,029.9,028.5,000.0,038.5,031.5,24.5,0000.0,0004.08,0001.21,0000.92
2023-06-13 22:46:00,SystemResetWarning,0828.4,5.00,000.00,030.0,028.5,000.0,038.5,031.5,25.3,0000.0,0003.92,0001.19,0000.91
2023-06-13 22:47:00,SystemResetWarning,0828.3,5.00,000.00,030.0,028.6,000.0,038.5,031.6,25.9,0000.0,0003.48,0001.16,0000.89
2023-06-13 22:48:00,SystemResetWarning,0828.3,5.00,000.00,030.0,028.6,000.0,038.5,031.6,24.6,0000.0,0002.42,0001.15,0000.87
2023-06-13 22:49:00,SystemResetWarning,0828.3,5.00,000.00,030.0,028.6,000.0,038.5,031.7,24.9,0000.0,0002.38,0001.13,0000.86
2023-06-13 22:50:00,SystemResetWarning,0828.3,5.00,000.00,030.1,028.7,000.0,038.5,031.7,24.0,0000.0,0002.29,0001.08,0000.83
2023-06-13 22:51:00,SystemResetWarning,0828.3,5.00,000.00,030.1,028.7,000.0,038.5,031.7,23.5,0000.0,0002.23,0001.05,0000.82
2023-06-13 22:52:00,SystemResetWarning,0828.3,5.00,000.00,030.1,028.8,000.0,038.5,031.7,22.4,0000.0,0002.06,0001.00,0000.81
2023-06-13 22:53:00,SystemResetWarning,0828.3,4.99,000.00,030.1,028.8,000.0,038.6,031.7,22.4,0000.0,0002.06,0000.98,0000.80
2023-06-13 22:54:00,SystemResetWarning,0828.2,5.00,000.00,030.2,028.8,000.0,038.6,031.8,22.2,0000.0,0002.10,0000.98,0000.79
2023-06-13 22:55:00,SystemResetWarning,0828.2,5.01,000.00,030.2,028.8,000.0,038.6,031.8,22.8,0000.0,0002.15,0001.00,0000.80
2023-06-13 22:56:00,SystemResetWarning,0828.2,5.01,000.00,030.2,028.9,000.0,038.6,031.8,23.1,0000.0,0002.05,0000.97,0000.79
2023-06-13 22:57:00,SystemResetWarning,0828.2,5.00,000.00,030.2,028.9,000.0,038.6,031.9,23.5,0000.0,0002.43,0000.99,0000.79
2023-06-13 22:58:00,SystemResetWarning,0828.2,4.99,000.00,030.2,028.9,000.0,038.7,031.9,24.1,0000.0,0002.73,0001.01,0000.79
2023-06-13 22:59:00,SystemResetWarning,0828.2,5.01,000.00,030.2,028.9,000.0,038.7,031.9,23.5,0000.0,0002.67,0000.98,0000.79
